Victoria, British Columbia

7:58 AM PST on December 14, 2017 (GMT -0800)
Victoria International

Weather History for CYYJ - September, 2013

Change the Weather History Date:

Sunday, September 22, 2013

  Actual Average Record
Temperature  
Mean Temperature 57 °F -  
Max Temperature 62 °F 59 °F 73 °F (2001)
Min Temperature 52 °F 43 °F 41 °F (1996)
Degree Days  
Heating Degree Days 8    
Growing Degree Days 7 (Base 50)    
Moisture  
Dew Point 53 °F    
Average Humidity 90    
Maximum Humidity 100    
Minimum Humidity 72    
Precipitation  
Precipitation 0.20 in 0.08 in - ()
Sea Level Pressure  
Sea Level Pressure 29.57 in    
Wind  
Wind Speed 9 mph ()    
Max Wind Speed 18 mph    
Max Gust Speed 24 mph    
Visibility 13.6 miles    
Events Rain    
Averages and records for this station are not official NWS values.
T = Trace of Precipitation, MM = Missing Value Source: Averaged Metar Reports

Daily Weather History Graph

Daily Weather History Graph

Search for Another Location

Airport or City:

Trip Planner

Search our weather history database for the weather conditions in past years. The results will help you decide how hot, cold, wet, or windy it might be!

Date:

Astronomy

Sep. 22, 2013 Rise Set
Actual Time 7:00 AM PDT 7:10 PM PDT
Civil Twilight 6:29 AM PDT 7:42 PM PDT
Nautical Twilight 5:52 AM PDT 8:19 PM PDT
Astronomical Twilight 5:14 AM PDT 8:57 PM PDT
Moon 8:43 PM PDT (9/22) 10:46 AM PDT (9/22)
Length of Visible Light 13h 12m
Length of Day
12h 09m
Waning Gibbous, 88% of the Moon is Illuminated
Sep 22
Waning Gibbous
Sep 26
Last Quarter
Oct 4
New
Oct 11
First Quarter
Oct 18
Full

Hourly Weather History & Observations

Time (PDT) Temp. Dew Point Humidity Pressure Visibility Wind Dir Wind Speed Gust Speed Precip Events Conditions
12:00 AM 55.4 °F 51.8 °F 88% 29.68 in 20.0 mi ESE 4.6 mph - N/A   Overcast
1:00 AM 55.4 °F 51.8 °F 88% 29.66 in 20.0 mi ESE 5.8 mph - N/A   Mostly Cloudy
2:00 AM 51.8 °F 51.8 °F 100% 29.65 in 20.0 mi East 6.9 mph - N/A   Mostly Cloudy
3:00 AM 53.6 °F 51.8 °F 94% 29.64 in 20.0 mi ESE 11.5 mph - N/A   Overcast
4:00 AM 53.6 °F 51.8 °F 94% 29.63 in 20.0 mi SE 8.1 mph - N/A Rain Light Rain
5:00 AM 53 °F 52 °F 97% 29.62 in 15 mi SE 10.4 mph - - Rain Light Rain
5:00 AM 53.6 °F 51.8 °F 94% 29.62 in 15.0 mi SE 11.5 mph - N/A   Overcast
5:28 AM 53.6 °F 53.6 °F 100% 29.61 in 20.0 mi SSE 10.4 mph - N/A Rain Light Rain
5:48 AM 53.6 °F 51.8 °F 94% 29.61 in 20.0 mi SE 6.9 mph - N/A Rain Light Rain
6:00 AM 53.6 °F 53.6 °F 100% 29.61 in 20.0 mi SE 6.9 mph - N/A Rain Light Rain
7:00 AM 53.6 °F 53.6 °F 100% 29.60 in 15.0 mi SE 10.4 mph - N/A Rain Light Rain
8:00 AM 53.6 °F 53.6 °F 100% 29.58 in 8.0 mi ESE 9.2 mph - N/A Rain Light Rain
9:00 AM 53.6 °F 51.8 °F 94% 29.56 in 7.0 mi ESE 6.9 mph - N/A Rain Light Rain
9:16 AM 53.6 °F 51.8 °F 94% 29.54 in 3.0 mi East 5.8 mph - N/A Rain Light Rain
9:35 AM 55.4 °F 53.6 °F 94% 29.54 in 10.0 mi East 8.1 mph - N/A Rain Light Rain
10:00 AM 53.6 °F 51.8 °F 94% 29.53 in 8.0 mi SE 11.5 mph 19.6 mph N/A Rain Light Rain
11:00 AM 55 °F 52 °F 88% 29.50 in 10 mi SE 12.7 mph - - Rain Light Rain
11:00 AM 55.4 °F 51.8 °F 88% 29.50 in 10.0 mi SE 18.4 mph - N/A Rain Light Rain
11:43 AM 53.6 °F 51.8 °F 94% 29.48 in 3.0 mi SE 13.8 mph 24.2 mph N/A Rain Light Rain
12:00 PM 53.6 °F 51.8 °F 94% 29.48 in 2.0 mi SE 12.7 mph 21.9 mph N/A Rain Rain
12:17 PM 53.6 °F 51.8 °F 94% 29.48 in 3.0 mi SSE 16.1 mph - N/A Rain Light Rain
12:35 PM 55.4 °F 53.6 °F 94% 29.47 in 4.0 mi SE 15.0 mph 23.0 mph N/A Rain Light Rain
1:00 PM 57.2 °F 53.6 °F 88% 29.49 in 15.0 mi SW 2.3 mph - N/A Rain Light Rain
1:30 PM 59.0 °F 53.6 °F 82% 29.48 in 20.0 mi SSE 9.2 mph - N/A   Scattered Clouds
2:00 PM 59.0 °F 55.4 °F 88% 29.50 in 30.0 mi South 10.4 mph - N/A   Scattered Clouds
2:18 PM 59.0 °F 55.4 °F 88% 29.50 in 30.0 mi South 16.1 mph - N/A Rain Light Rain Showers
3:00 PM 60.8 °F 53.6 °F 77% 29.52 in 30.0 mi South 11.5 mph 20.7 mph N/A Rain Light Rain Showers
4:00 PM 60.8 °F 51.8 °F 72% 29.55 in 30.0 mi South 11.5 mph - N/A   Mostly Cloudy
5:00 PM 57 °F 53 °F 81% 29.57 in 28 mi SE 13.8 mph - -   Partly Cloudy
5:00 PM 57.2 °F 53.6 °F 88% 29.57 in 30.0 mi SE 12.7 mph - N/A   Mostly Cloudy
6:00 PM 57.2 °F 53.6 °F 88% 29.58 in 30.0 mi South 13.8 mph - N/A   Mostly Cloudy
6:08 PM 57.2 °F 53.6 °F 88% 29.58 in 30.0 mi South 11.5 mph - N/A Rain Light Rain Showers
7:00 PM 55.4 °F 53.6 °F 94% 29.60 in 30.0 mi SSE 11.5 mph - N/A Rain Light Rain Showers
8:00 PM 55.4 °F 51.8 °F 88% 29.62 in 30.0 mi South 13.8 mph 20.7 mph N/A   Scattered Clouds
9:00 PM 55.4 °F 51.8 °F 88% 29.64 in 30.0 mi South 12.7 mph - N/A   Mostly Cloudy
10:00 PM 55.4 °F 51.8 °F 88% 29.65 in 20.0 mi South 12.7 mph - N/A   Mostly Cloudy
11:00 PM 55 °F 51 °F 81% 29.67 in 19 mi South 13.8 mph - -   Partly Cloudy
11:00 PM 55.4 °F 50.0 °F 82% 29.67 in 20.0 mi South 12.7 mph - N/A   Mostly Cloudy